Weather History for Al Udeid, Qatar

Change the Weather History Date:

Tuesday, June 11, 2013

  Actual Average Record
Temperature  
Mean Temperature 92 °F -  
Max Temperature 102 °F - - ()
Min Temperature 82 °F - - ()
Cooling Degree Days 27    
Growing Degree Days 42 (Base 50)    
Moisture  
Dew Point 48 °F    
Average Humidity 26    
Maximum Humidity 51    
Minimum Humidity 8    
Precipitation  
Precipitation 0.03 in - - ()
Sea Level Pressure  
Sea Level Pressure 29.53 in    
Wind  
Wind Speed 19 mph ()    
Max Wind Speed 41 mph    
Max Gust Speed 50 mph    
Visibility 4.1 miles    
Events      
T = Trace of Precipitation, MM = Missing Value Source: Averaged Metar Reports

Daily Weather History Graph

Daily Weather History Graph

Search for Another Location

Airport:

Trip Planner

Search our weather history database for the weather conditions in past years. The results will help you decide how hot, cold, wet, or windy it might be!

Date:

Astronomy

Jun. 11, 2013 Rise Set
Actual Time 4:43 AM AST 6:24 PM AST
Civil Twilight 4:18 AM AST 6:50 PM AST
Nautical Twilight 3:47 AM AST 7:21 PM AST
Astronomical Twilight 3:14 AM AST 7:54 PM AST
Moon 6:55 AM AST (6/11) 8:26 PM AST (6/11)
Length of Visible Light 14h 32m
Length of Day
13h 40m
Waxing Crescent, 7% of the Moon is Illuminated
Jun 11
Waxing Crescent
Jun 16
First Quarter
Jun 23
Full
Jun 30
Last Quarter
Jul 8
New

Hourly Weather History & Observations

Time (AST) Temp. Heat Index Dew Point Humidity Pressure Visibility Wind Dir Wind Speed Gust Speed Precip Events Conditions
12:55 AM 86.2 °F - 52.7 °F 32% 29.48 in 6.2 mi WNW 11.5 mph - N/A   Clear
1:55 AM 84.9 °F 83.4 °F 54.3 °F 35% 29.48 in 6.2 mi NW 11.5 mph - N/A   Clear
2:41 AM 84.2 °F 83.0 °F 55.4 °F 37% 29.49 in 6.2 mi NW 12.7 mph - N/A   Partly Cloudy
2:50 AM 84.2 °F 83.0 °F 55.4 °F 37% 29.49 in 6.2 mi NW 12.7 mph - N/A   Mostly Cloudy
2:55 AM 84.2 °F 83.3 °F 56.5 °F 39% 29.49 in 6.2 mi NW 13.8 mph - N/A   Mostly Cloudy
3:55 AM 83.1 °F 83.0 °F 59.0 °F 44% 29.51 in 5.6 mi NW 12.7 mph - N/A   Haze
4:11 AM 82.4 °F 82.9 °F 60.8 °F 48% 29.51 in 5.0 mi NW 12.7 mph - N/A   Haze
4:55 AM 82.6 °F 83.2 °F 61.5 °F 49% 29.53 in 3.7 mi NW 11.5 mph - N/A   Haze
5:21 AM 82.4 °F 83.4 °F 62.6 °F 51% 29.54 in 3.7 mi NW 11.5 mph - N/A   Haze
5:55 AM 83.7 °F 84.9 °F 63.5 °F 51% 29.55 in 3.7 mi NW 11.5 mph - N/A   Haze
6:00 AM 84.2 °F 85.6 °F 64.4 °F 51% 29.55 in - NW 12.7 mph - N/A   Haze
6:52 AM 86.0 °F 87.3 °F 64.4 °F 48% 29.56 in - NW 15.0 mph - N/A   Haze
6:55 AM 86.0 °F 87.9 °F 65.1 °F 50% 29.56 in - NW 16.1 mph - N/A   Haze
7:26 AM 89.6 °F 90.1 °F 62.6 °F 40% 29.56 in 3.7 mi NNW 21.9 mph - N/A   Haze
7:55 AM 91.9 °F 90.6 °F 57.4 °F 31% 29.55 in 3.7 mi North 21.9 mph 28.8 mph N/A   Haze
8:55 AM 97.0 °F - 49.8 °F 20% 29.56 in 3.7 mi NNW 29.9 mph - N/A   Haze
9:14 AM 98.6 °F - 48.2 °F 18% 29.55 in 3.7 mi NNW 31.1 mph 35.7 mph N/A   Haze
9:22 AM 98.6 °F - 48.2 °F 18% 29.55 in - North 27.6 mph 39.1 mph N/A   Haze
9:24 AM 98.6 °F - 48.2 °F 18% 29.55 in 3.7 mi NNW 31.1 mph 39.1 mph N/A   Haze
9:39 AM 98.6 °F - 46.4 °F 17% 29.55 in 3.7 mi NNW 31.1 mph 39.1 mph N/A   Haze
9:41 AM 98.6 °F - 44.6 °F 16% 29.55 in - NNW 35.7 mph 40.3 mph N/A   Haze
9:43 AM 98.6 °F - 44.6 °F 16% 29.54 in 3.1 mi NNW 34.5 mph 40.3 mph N/A   Haze
9:55 AM 99.5 °F - 42.3 °F 14% 29.55 in 2.5 mi NNW 35.7 mph 42.6 mph N/A   Widespread Dust
9:59 AM 100.4 °F - 42.8 °F 14% 29.55 in - NNW 35.7 mph 43.7 mph N/A   Widespread Dust
10:46 AM 100.4 °F - 35.6 °F 11% 29.55 in 1.5 mi NNW 39.1 mph 46.0 mph N/A   Widespread Dust
10:55 AM 100.2 °F - 36.5 °F 11% 29.56 in 1.5 mi NNW 35.7 mph 44.9 mph N/A   Widespread Dust
11:25 AM 100.4 °F - 33.8 °F 10% 29.55 in 1.5 mi NNW 39.1 mph 49.5 mph N/A   Widespread Dust
11:55 AM 101.1 °F - 30.2 °F 8% 29.55 in 1.5 mi NNW 41.4 mph 46.0 mph N/A   Widespread Dust
12:01 PM 100.4 °F - 32.0 °F 9% 29.55 in 1.7 mi NNW 39.1 mph 46.0 mph N/A   Widespread Dust
12:29 PM 100.4 °F - 30.2 °F 9% 29.55 in - NW 36.8 mph 48.3 mph N/A   Widespread Dust
12:55 PM 101.1 °F - 30.2 °F 8% 29.54 in 2.5 mi NNW 36.8 mph 46.0 mph 0.02 in   Haze
1:06 PM 102.2 °F - 32.0 °F 9% 29.54 in - NNW 40.3 mph 46.0 mph N/A   Widespread Dust
1:55 PM 101.1 °F - 30.2 °F 8% 29.52 in - NNW 36.8 mph 47.2 mph N/A   Widespread Dust
2:55 PM 100.4 °F - 32.0 °F 9% 29.52 in 2.5 mi NNW 36.8 mph 44.9 mph N/A   Widespread Dust
4:55 PM 97.3 °F - 33.6 °F 11% 29.50 in 2.5 mi NNW 31.1 mph 40.3 mph 0.01 in   Haze
5:37 PM 95.0 °F - 39.2 °F 14% 29.50 in 3.7 mi NNW 31.1 mph 39.1 mph N/A   Widespread Dust
5:55 PM 94.8 °F - 41.9 °F 16% 29.50 in 3.7 mi NNW 28.8 mph 38.0 mph N/A   Haze
6:55 PM 92.5 °F - 44.6 °F 19% 29.51 in 6.2 mi NNW 19.6 mph - N/A   Clear
7:55 PM 90.9 °F - 50.0 °F 25% 29.53 in 6.2 mi NNW 16.1 mph - N/A   Clear
8:55 PM 89.1 °F - 51.4 °F 27% 29.53 in 6.2 mi NW 12.7 mph - N/A   Clear
9:55 PM 86.9 °F 84.9 °F 53.4 °F 32% 29.53 in 6.2 mi WNW 12.7 mph - N/A   Clear
10:55 PM 86.4 °F - 52.9 °F 32% 29.53 in 6.2 mi NW 13.8 mph - N/A   Clear
11:55 PM 85.5 °F 84.6 °F 57.9 °F 39% 29.52 in 6.2 mi WNW 13.8 mph - N/A   Clear